Weather History for Grant County, OR

Change the Weather History Date:

Tuesday, July 23, 2013

  Actual Average (KBNO) Record (KBNO)
Temperature  
Mean Temperature 76 °F 68 °F  
Max Temperature 97 °F 88 °F 103 °F (2003)
Min Temperature 56 °F 48 °F 37 °F (2011)
Degree Days  
Heating Degree Days 0 1  
Month to date heating degree days 49  
Since 1 June heating degree days 267  
Since 1 July heating degree days 49  
Cooling Degree Days 11 4  
Month to date cooling degree days 74  
Year to date cooling degree days 97  
Since 1 June cooling degree days 94  
Growing Degree Days 26 (Base 50)    
Moisture  
Dew Point 27 °F    
Average Humidity 18    
Maximum Humidity 33    
Minimum Humidity 6    
Precipitation  
Precipitation 0.00 in 0.01 in 0.46 in (1984)
Month to date precipitation 0.30  
Year to date precipitation 6.52  
Sea Level Pressure  
Sea Level Pressure 30.07 in    
Wind  
Wind Speed 7 mph (NE)    
Max Wind Speed 13 mph    
Max Gust Speed -    
Visibility 10 miles    
Events      
T = Trace of Precipitation, MM = Missing Value Source: NWS Daily Summary

Daily Weather History Graph

Daily Weather History Graph

Search for Another Location

Airport:

Trip Planner

Search our weather history database for the weather conditions in past years. The results will help you decide how hot, cold, wet, or windy it might be!

Date:

Astronomy

Jul. 23, 2013 Rise Set
Actual Time 5:33 AM PDT 8:30 PM PDT
Civil Twilight 4:59 AM PDT 9:04 PM PDT
Nautical Twilight 4:15 AM PDT 9:48 PM PDT
Astronomical Twilight 3:23 AM PDT 10:39 PM PDT
Moon 8:55 PM PDT (7/23) 6:53 AM PDT (7/23)
Length of Visible Light 16h 05m
Length of Day
14h 56m
Full, 98% of the Moon is Illuminated
Jul 23
Full
Jul 29
Last Quarter
Aug 6
New
Aug 14
First Quarter
Aug 20
Full

Hourly Weather History & Observations

Time (PDT) Temp. Dew Point Humidity Pressure Visibility Wind Dir Wind Speed Gust Speed Precip Events Conditions
12:15 AM 67.1 °F 25.7 °F 21% 30.07 in 10.0 mi East 8.1 mph - N/A   Clear
12:35 AM 67.6 °F 25.7 °F 21% 30.07 in 10.0 mi ESE 11.5 mph - N/A   Clear
12:55 AM 65.8 °F 26.4 °F 23% 30.07 in 10.0 mi ESE 9.2 mph - N/A   Clear
1:15 AM 61.9 °F 27.0 °F 27% 30.08 in 10.0 mi ESE 8.1 mph - N/A   Clear
1:35 AM 64.4 °F 26.4 °F 24% 30.08 in 10.0 mi East 10.4 mph - N/A   Clear
1:55 AM 63.9 °F 26.6 °F 24% 30.08 in 10.0 mi East 9.2 mph - N/A   Clear
2:15 AM 59.5 °F 27.0 °F 29% 30.08 in 10.0 mi East 9.2 mph - N/A   Clear
2:35 AM 58.1 °F 27.0 °F 30% 30.08 in 10.0 mi ESE 8.1 mph - N/A   Clear
2:55 AM 58.1 °F 26.6 °F 30% 30.08 in 10.0 mi ESE 8.1 mph - N/A   Clear
3:15 AM 59.9 °F 26.1 °F 27% 30.09 in 10.0 mi ESE 9.2 mph - N/A   Clear
3:35 AM 58.8 °F 26.1 °F 29% 30.09 in 10.0 mi SE 4.6 mph - N/A   Clear
3:55 AM 61.0 °F 25.7 °F 26% 30.09 in 10.0 mi ESE 3.5 mph - N/A   Clear
4:15 AM 59.7 °F 26.2 °F 28% 30.09 in 10.0 mi ESE 11.5 mph - N/A   Clear
4:35 AM 56.5 °F 26.2 °F 31% 30.10 in 10.0 mi ESE 5.8 mph - N/A   Clear
4:55 AM 56.3 °F 26.1 °F 31% 30.10 in 10.0 mi SE 3.5 mph - N/A   Clear
5:15 AM 56.5 °F 26.2 °F 31% 30.10 in 10.0 mi ESE 8.1 mph - N/A   Clear
5:35 AM 58.3 °F 26.2 °F 29% 30.11 in 10.0 mi SE 11.5 mph - N/A   Clear
5:55 AM 57.7 °F 26.6 °F 30% 30.12 in 10.0 mi ESE 9.2 mph - N/A   Clear
6:15 AM 56.7 °F 27.3 °F 33% 30.12 in 10.0 mi East 9.2 mph - N/A   Clear
6:35 AM 56.3 °F 27.7 °F 33% 30.12 in 10.0 mi East 10.4 mph - N/A   Clear
6:55 AM 58.6 °F 28.2 °F 31% 30.13 in 10.0 mi ESE 9.2 mph - N/A   Clear
7:15 AM 60.8 °F 28.4 °F 29% 30.13 in 10.0 mi ESE 9.2 mph - N/A   Clear
7:35 AM 62.8 °F 28.2 °F 27% 30.13 in 10.0 mi SE 12.7 mph - N/A   Clear
7:55 AM 63.7 °F 28.8 °F 27% 30.14 in 10.0 mi East 6.9 mph - N/A   Clear
8:15 AM 66.4 °F 29.7 °F 25% 30.13 in 10.0 mi East 4.6 mph - N/A   Clear
8:35 AM 68.9 °F 29.1 °F 23% 30.13 in 10.0 mi East 5.8 mph - N/A   Clear
8:55 AM 71.4 °F 29.5 °F 21% 30.13 in 10.0 mi East 3.5 mph - N/A   Clear
9:15 AM 73.8 °F 29.5 °F 20% 30.13 in 10.0 mi Calm Calm - N/A   Clear
9:35 AM 75.7 °F 26.8 °F 16% 30.12 in 10.0 mi Calm Calm - N/A   Clear
9:55 AM 77.7 °F 27.7 °F 16% 30.12 in 10.0 mi East 3.5 mph - N/A   Clear
10:15 AM 79.9 °F 28.6 °F 15% 30.12 in 10.0 mi Calm Calm - N/A   Clear
10:35 AM 82.0 °F 28.0 °F 14% 30.11 in 10.0 mi Calm Calm - N/A   Clear
10:55 AM 84.4 °F 28.6 °F 13% 30.10 in 10.0 mi Calm Calm - N/A   Clear
11:15 AM 87.1 °F 24.4 °F 10% 30.10 in 10.0 mi Calm Calm - N/A   Clear
11:35 AM 88.3 °F 23.9 °F 10% 30.10 in 10.0 mi Calm Calm - N/A   Clear
11:55 AM 89.2 °F 27.9 °F 11% 30.09 in 10.0 mi ENE 3.5 mph - N/A   Clear
12:15 PM 91.6 °F 29.7 °F 11% 30.09 in 10.0 mi NW 5.8 mph - N/A   Clear
12:35 PM 90.7 °F 29.1 °F 11% 30.08 in 10.0 mi NE 5.8 mph - N/A   Clear
1:15 PM 92.5 °F 29.1 °F 10% 30.07 in 10.0 mi WSW 5.8 mph - N/A   Clear
1:35 PM 93.4 °F 28.9 °F 10% 30.07 in 10.0 mi NW 5.8 mph - N/A   Clear
1:55 PM 93.4 °F 27.1 °F 9% 30.06 in 10.0 mi NW 9.2 mph - N/A   Clear
2:15 PM 94.5 °F 24.6 °F 8% 30.05 in 10.0 mi West 11.5 mph - N/A   Clear
2:35 PM 95.9 °F 24.6 °F 8% 30.04 in 10.0 mi NW 9.2 mph - N/A   Clear
2:55 PM 95.2 °F 22.5 °F 7% 30.03 in 10.0 mi NW 10.4 mph - N/A   Clear
3:15 PM 94.3 °F 23.2 °F 8% 30.03 in 10.0 mi West 9.2 mph - N/A   Clear
3:35 PM 95.0 °F 21.9 °F 7% 30.03 in 10.0 mi NNW 5.8 mph - N/A   Clear
3:55 PM 95.0 °F 19.9 °F 7% 30.02 in 10.0 mi West 8.1 mph - N/A   Clear
4:15 PM 94.6 °F 19.6 °F 7% 30.01 in 10.0 mi WNW 6.9 mph - N/A   Clear
4:35 PM 95.2 °F 16.3 °F 6% 30.01 in 10.0 mi West 5.8 mph - N/A   Clear
4:55 PM 94.5 °F 18.1 °F 6% 30.01 in 10.0 mi WNW 4.6 mph - N/A   Clear
5:15 PM 95.9 °F 18.3 °F 6% 30.00 in 10.0 mi NW 4.6 mph - N/A   Clear
5:35 PM 95.2 °F 15.8 °F 6% 30.00 in 10.0 mi Calm Calm - N/A   Clear
5:55 PM 96.6 °F 18.0 °F 6% 29.99 in 10.0 mi ENE 3.5 mph - N/A   Clear
6:15 PM 96.3 °F 19.4 °F 6% 29.99 in 10.0 mi North 9.2 mph - N/A   Clear
6:35 PM 94.8 °F 28.0 °F 9% 29.99 in 10.0 mi North 11.5 mph - N/A   Clear
6:55 PM 93.9 °F 27.7 °F 9% 29.99 in 10.0 mi North 8.1 mph - N/A   Clear
7:15 PM 93.0 °F 26.8 °F 9% 30.00 in 10.0 mi North 8.1 mph - N/A   Clear
7:35 PM 91.4 °F 26.8 °F 10% 30.00 in 10.0 mi NNE 5.8 mph - N/A   Clear
7:55 PM 87.6 °F 27.0 °F 11% 30.00 in 10.0 mi North 5.8 mph - N/A   Clear
8:15 PM 87.1 °F 23.5 °F 10% 30.01 in 10.0 mi Calm Calm - N/A   Clear
8:35 PM 88.2 °F 23.0 °F 9% 30.01 in 10.0 mi Calm Calm - N/A   Clear
8:55 PM 85.6 °F 24.3 °F 11% 30.02 in 10.0 mi NNW 3.5 mph - N/A   Clear
9:15 PM 83.7 °F 30.9 °F 15% 30.03 in 10.0 mi North 8.1 mph - N/A   Clear
9:35 PM 83.8 °F 32.9 °F 16% 30.04 in 10.0 mi North 6.9 mph - N/A   Clear
9:55 PM 81.3 °F 32.7 °F 17% 30.05 in 10.0 mi NNW 6.9 mph - N/A   Clear
10:15 PM 78.4 °F 33.8 °F 20% 30.05 in 10.0 mi WNW 3.5 mph - N/A   Clear
10:35 PM 77.7 °F 34.9 °F 21% 30.06 in 10.0 mi NW 6.9 mph - N/A   Clear
10:55 PM 77.2 °F 34.9 °F 22% 30.06 in 10.0 mi West 4.6 mph - N/A   Clear
11:15 PM 77.4 °F 34.7 °F 21% 30.07 in 10.0 mi West 4.6 mph - N/A   Clear
11:35 PM 75.9 °F 33.6 °F 21% 30.08 in 10.0 mi SW 4.6 mph - N/A   Clear
11:55 PM 75.4 °F 34.3 °F 22% 30.08 in 10.0 mi SW 4.6 mph - N/A   Clear